Regional Weather Roundup
Issued by NWS

Home | Current Version | Previous Version | Text Only | Print | Product List | Glossary Off
Versions: 1 2 3 4 5 6 7 8 9 10 11 12 13 14 15 16 17 18 19 20 21 22 23 24 25 26 27 28 29 30 31 32 33 34 35 36 37 38 39 40 41 42 43 44 45 46 47 48 49 50

311
ASUS45 KSLC 180810
RWRUT

UTAH REGIONAL WEATHER ROUNDUP
NATIONAL WEATHER SERVICE SALT LAKE CITY UT
100 AM MST WED JAN 18 2017

UTZ001>011-023>025-180900-

NORTHERN UTAH

CITY           SKY/WX    TMP DP  RH WIND       PRES   REMARKS
BRIGHAM CITY     N/A     11   7  83 NW9       30.24F WCI  -2
HILL AFB       PTCLDY    16   8  69 SE14      30.20F WCI   2
LOGAN          CLEAR      0  -3  87 W5        30.25F FOG     WCI -10
OGDEN          PTCLDY    13   9  84 CALM      30.22F
SALT LAKE CITY PTCLDY    23  18  81 N5        30.22F WCI  17
TOOELE VALLEY  PTCLDY    18  18 100 S5        30.23F FOG     WCI  11
WENDOVER       CLOUDY    21  18  86 NE7       30.22F WCI  13
HEBER CITY     PTCLDY    -2  -8  78 CALM      30.19F
WEST JORDAN    PTCLDY    21  21 100 CALM      30.21F

$$

UTZ011>015-024>027-180900-

CENTRAL/NORTHEAST UTAH

CITY           SKY/WX    TMP DP  RH WIND       PRES   REMARKS
PROVO AIRPORT  PTCLDY    17  14  88 SE6       30.23F WCI   9
MOAB/CANYONLAN CLEAR     29  24  82 NW5       30.17F WCI  24
DELTA          CLEAR     19  18  93 E6        30.18F WCI  11
PRICE          PTCLDY    11   3  70 N3        30.15F
RICHFIELD      CLEAR     19  19 100 CALM      30.22  FOG
ROOSEVELT      LGT SNOW  19  14  79 CALM      30.29F
VERNAL         CLOUDY    16  13  88 MISG      30.27S

$$

UTZ013>016-019>022-027-180900-

SOUTHERN UTAH

CITY           SKY/WX    TMP DP  RH WIND       PRES   REMARKS
BRYCE CANYON   PTCLDY     7   3  84 W7        30.16F WCI  -5
CEDAR CITY     CLEAR     20  16  84 SE3       30.15F
MILFORD        CLEAR     20  17  88 NW3       30.18F
ST GEORGE      MOSUNNY   36  25  64 SE6       30.20S WCI  31
HANKSVILLE     PTCLDY    27  23  86 MISG      30.21F
KANAB          CLEAR     32  25  74 N10       30.20  WCI  24
BLANDING       CLEAR     29  28  95 NW6       30.21F WCI  23

$$

REGIONAL REPORTS     COLORADO/ARIZONA

CITY           SKY/WX    TMP DP  RH WIND       PRES   REMARKS
CRAIG, CO      FOG        9   6  88 CALM      30.20S VSB 1/2
GRAND JUNCTION CLOUDY    31  29  92 CALM      30.17S
RIFLE, CO      CLOUDY    24  21  88 SW3       30.18S
MONTROSE, CO   CLOUDY    34  32  92 CALM      30.17F
CORTEZ, CO     CLEAR     28  27  96 E6        30.14S WCI  22
COLORADO CITY    N/A     27  25  93 SE3       30.19S
PAGE, AZ       CLEAR     35  24  64 CALM      30.16S
GRAND CANYON   CLEAR     22  21  96 CALM      30.17F
KINGMAN, AZ    CLEAR     34  23  64 VRB3      30.14F
FLAGSTAFF, AZ  PTCLDY    23  22  96 CALM      30.17S

$$

REGIONAL REPORTS    NEVADA/IDAHO/WYOMING

CITY           SKY/WX    TMP DP  RH WIND       PRES   REMARKS
LAS VEGAS, NV  CLEAR     41  24  51 S6        30.14F
ELY, NY        CLEAR      9   3  77 SE13      30.14F WCI  -7
ELKO, NV       PTCLDY     7   2  80 E7        30.17S WCI  -5
POCATELLO, ID  CLOUDY     3   0  87 N9        30.16F WCI -12
BURLEY, ID     CLEAR     15   9  76 E16       30.09F WCI  -1
FORT BRIDGER,    N/A      1  -4  80 S5        30.14F WCI  -9
EVANSTON, WY   CLOUDY    15   6  67 SW8       30.12F WCI   4
ROCK SPRINGS,  CLOUDY    -3  -8  79 W6        30.13F WCI -15

$$




USA.gov is the U.S. government's official web portal to all federal, state and local government web resources and services.